Location: Unspecified
(34.4950°S, 58.5160°W)
Time: 23:31:01
(UTC+00:00)

Milstar 3 Cent rocket - Pass Details

Date: 19 April 2026
Orbit: 706 x 5144 km, 28.3° (Epoch: 16 May)

Event Time Altitude Azimuth Distance (km) Brightness Sun altitude
Rises 00:07:52 0° 299° (WNW) 3,154 5.8 -33.9°
Reaches altitude 10° 00:09:59 10° 307° (NW) 2,352 4.9 -34.3°
Enters shadow 00:12:02 24° 322° (NW) 1,716 3.9 -34.7°
